SCP
1 1 1 1 2 2 2 2 2 2 2 1 1 1 1 1 1 1 1 1 2 3 3 3 3 3 3 3 2 2 2 1 1 1 1 1 1 1 1 1 1 0 0
2 2 2 2 2 2 2 2 2 2 2 1 1 1 1 1 1 1 1 2 2 3 3 4 4 4 3 3 2 2 2 2 2 1 1 1 1 1 1 1 1 1 0
3 3 3 3 3 3 3 3 3 2 2 2 2 1 1 1 1 1 2 2 2 3 3 4 4 4 4 3 3 2 2 2 2 1 1 1 1 1 1 1 1 1 1
4 5 6 224 369 223 4 4 3 3 2 2 2 2 2 2 2 2 2 3 3 3 3 3 4 5 4 4 3 3 2 2 2 2 1 1 1 1 1 1 1 1 1
5 6 8 372 735 370 4 4 3 3 3 3 3 2 2 2 2 2 2 2 3 3 3 3 3 5 5 4 3 2 2 2 2 2 2 2 1 1 1 1 1 1 1
4 5 6 225 370 224 5 4 3 3 3 3 3 2 2 2 2 1 1 2 2 2 2 3 3 4 4 3 3 2 2 2 2 2 2 2 2 1 1 1 1 1 1
3 3 4 5 5 5 5 4 4 3 3 3 3 2 2 2 2 2 2 2 2 2 2 3 3 3 3 2 2 2 2 2 3 2 2 2 2 1 1 1 1 1 1
3 3 3 4 4 4 5 4 4 4 4 3 3 3 2 1 1 1 1 1 1 1 2 2 3 2 2 2 2 2 2 2 3 3 2 2 2 1 1 1 1 1 1
3 3 3 4 4 4 4 4 4 4 4 3 3 3 2 1 1 1 1 1 1 1 1 2 2 2 2 1 1 1 2 2 2 2 2 2 2 1 1 1 1 1 1
2 2 3 3 3 3 3 4 4 4 4 3 3 2 2 1 1 1 1 1 1 1 1 1 1 1 1 1 1 1 1 1 1 1 2 2 1 1 1 1 1 1 1
2 2 2 2 3 3 3 3 3 3 3 3 3 2 2 1 1 1 0 0 0 0 0 0 0 1 1 1 1 1 1 1 1 1 1 1 1 1 1 1 1 1 1
1 2 2 2 2 3 3 2 2 2 2 2 2 2 1 1 1 1 0 0 0 0 0 0 0 0 0 0 0 0 0 0 0 0 0 1 1 1 1 1 1 1 1
1 2 2 2 2 2 2 2 2 2 1 1 1 1 1 1 1 0 0 0 0 0 0 0 0 0 0 0 0 0 0 0 0 0 0 0 0 1 1 1 1 1 1
1 1 1 2 2 2 2 2 1 1 1 1 1 1 1 0 0 0 0 0 0 0 0 0 0 0 0 0 0 0 0 0 0 0 0 0 0 0 0 0 0 0 1
0 1 1 1 1 1 1 1 1 1 0 0 0 0 0 0 0 0 0 0 0 0 0 0 0 0 0 0 0 0 0 0 0 0 0 0 0 0 0 0 0 0 0
0 0 0 1 1 1 1 1 1 0 0 0 0 0 0 0 0 0 0 0 0 0 0 0 0 0 0 0 0 0 0 0 0 0 0 0 0 0 0 0 0 0 0
0 0 0 0 0 1 1 1 0 0 0 0 0 0 0 0 0 0 0 0 0 0 0 0 0 0 0 0 0 0 0 0 0 0 0 0 0 0 0 0 0 0 0
0 0 0 0 0 0 0 0 0 0 0 0 0 0 0 0 0 0 0 0 0 0 0 0 0 0 0 0 0 0 0 0 0 0 0 0 0 0 0 0 0 0 0
0 0 0 0 0 0 0 0 0 0 0 0 0 0 0 0 0 0 0 0 0 0 0 0 0 0 0 0 0 0 0 0 0 0 0 0 0 0 0 0 0 0 0
0 0 0 0 0 0 0 0 0 0 0 0 0 0 0 0 0 0 0 0 0 0 0 0 0 0 0 0 0 0 0 0 0 0 0 0 0 0 0 0 0 0 0
0 0 0 0 0 0 0 0 0 0 0 0 0 0 0 0 0 0 0 0 0 0 0 0 0 0 0 0 0 0 0 0 0 0 0 0 0 0 0 0 0 0 0
0 0 0 0 0 0 0 0 0 0 0 0 0 0 0 0 0 0 0 0 0 0 0 0 0 0 0 0 0 0 0 0 0 0 0 0 0 0 0 0 0 0 0
0 0 0 0 0 0 0 0 0 0 0 0 0 0 0 0 0 0 0 0 0 0 0 0 0 0 0 0 0 0 0 0 0 0 0 0 0 0 0 0 0 0 0
0 0 0 0 0 0 0 0 0 0 0 0 0 0 0 0 0 0 0 0 0 0 0 0 0 0 0 0 0 0 0 0 0 0 0 0 0 0 0 0 0 0 0
0 0 0 0 0 0 0 0 0 0 0 0 0 0 0 0 0 0 0 0 0 0 0 0 0 0 0 0 0 0 0 0 0 0 0 0 0 0 0 0 0 0 0
0 0 0 0 0 0 0 0 0 0 0 0 0 0 0 0 0 0 0 0 0 0 0 0 0 0 0 0 0 0 0 0 0 0 0 0 0 0 0 0 0 0 0
Wind_Speed
8 8 7 7 8 7 8 8 8 9 10 10 10 11 11 11 11 9 7 15 18 18 18 19 20 20 20 19 19 18 18 17 16 16 17 18 18 19 19 18 18 17 16
9 9 9 7 7 8 8 8 10 9 9 8 10 11 11 10 10 10 8 10 16 17 18 20 21 21 21 20 20 19 17 17 16 16 17 17 17 18 18 18 17 17 16
12 11 9 8 8 8 9 7 9 7 7 8 9 10 8 8 8 8 8 6 7 14 18 20 20 21 21 21 21 20 18 17 16 16 16 17 17 17 17 17 17 16 16
13 11 9 9 8 6 6 6 6 5 6 5 5 5 5 5 7 8 7 7 6 7 12 20 21 21 22 22 22 21 19 18 17 17 17 17 17 16 16 16 16 16 16
12 10 9 8 6 5 5 6 5 4 4 5 5 5 5 6 6 7 7 8 7 8 7 12 20 23 23 23 22 21 20 19 18 18 18 18 17 16 16 16 16 16 16
8 7 7 7 6 5 5 4 4 4 4 4 5 6 5 6 5 6 8 7 7 9 8 9 9 12 20 22 21 20 19 18 18 19 19 18 18 16 16 16 16 16 16
6 5 6 5 5 6 7 6 5 5 5 3 3 5 5 7 8 8 7 6 7 8 8 8 7 7 7 16 18 19 20 20 18 19 19 19 18 17 16 16 16 16 16
7 6 6 5 5 6 7 8 7 5 4 4 4 3 4 4 5 8 6 5 5 4 5 6 6 6 6 5 9 18 20 20 20 19 19 19 18 17 17 17 17 17 17
7 6 6 6 6 6 7 8 7 8 6 5 6 5 4 6 4 3 4 3 2 2 2 2 2 3 5 5 5 11 16 18 19 19 18 18 18 17 18 18 18 18 17
7 6 6 6 6 6 7 8 7 6 7 6 4 5 5 4 3 3 3 2 2 2 2 2 1 1 2 3 4 7 10 12 13 16 16 16 17 17 18 18 20 20 19
6 6 6 5 5 5 5 6 5 5 5 5 4 3 4 4 5 4 3 3 2 2 2 2 1 1 1 2 2 2 4 5 6 8 10 11 14 16 17 19 20 20 20
5 6 5 4 4 4 4 4 4 5 4 4 4 3 3 3 3 3 3 2 2 2 2 1 1 1 2 3 3 3 3 2 2 3 3 4 7 10 12 14 17 18 19
6 6 5 4 4 4 4 3 3 4 4 4 3 3 3 2 2 2 2 2 1 1 2 3 2 1 2 2 2 3 2 2 1 1 1 1 3 4 6 6 8 10 12
6 7 6 5 5 5 4 4 3 3 3 3 3 3 2 2 2 2 2 2 0 1 3 3 2 2 1 1 2 3 1 2 1 1 1 1 1 1 2 3 3 4 5
6 7 6 6 5 4 5 4 3 4 4 3 3 3 2 1 1 1 1 2 2 2 2 3 2 3 2 2 3 2 2 2 1 1 1 1 1 1 1 1 2 3 5
6 7 6 5 4 4 4 4 3 3 4 3 3 3 2 1 1 0 1 1 2 3 2 2 2 2 3 3 5 4 3 4 3 1 0 1 1 0 0 2 3 4 6
6 6 6 4 3 2 2 3 3 3 3 3 3 4 3 2 2 1 1 2 2 3 4 2 3 3 5 5 4 4 4 4 4 4 2 1 1 1 2 3 4 6 7
6 6 5 4 3 1 1 3 4 4 5 5 5 5 4 4 3 2 3 3 3 3 5 4 3 4 5 4 4 5 4 5 4 6 5 3 2 2 3 4 5 6 8
6 6 5 5 4 4 5 5 6 7 7 6 6 6 5 5 5 4 5 5 4 6 5 5 4 4 4 4 4 4 4 4 4 4 5 4 4 4 4 5 6 7 8
4 5 5 5 5 6 7 8 9 9 9 8 7 6 5 5 5 5 6 6 7 8 7 6 4 4 3 3 4 4 4 3 3 4 4 4 4 4 5 5 6 7 8
3 4 5 6 6 6 8 9 8 9 9 9 8 7 7 8 9 7 7 7 8 7 5 5 4 4 4 4 4 3 3 3 3 3 3 3 3 3 3 4 6 9 10
2 3 4 5 6 6 8 10 8 7 7 8 7 6 7 9 11 13 14 12 9 8 6 5 3 4 3 3 3 3 3 4 4 4 3 3 2 3 3 2 6 9 10
1 1 3 4 5 6 9 12 12 8 7 7 6 6 6 7 8 7 11 13 12 11 8 5 4 2 2 2 3 4 4 2 1 4 3 3 3 3 3 3 7 9 10
2 2 3 4 5 6 10 11 12 9 8 7 6 6 7 6 6 7 8 8 7 6 6 4 3 1 1 1 1 1 1 2 2 3 3 3 4 4 4 3 6 9 10
4 4 4 5 5 5 9 12 11 7 7 7 6 6 7 7 9 11 9 8 7 6 7 10 8 7 6 6 4 4 4 4 3 4 3 3 4 4 4 4 5 9 9
5 6 5 5 5 5 8 12 11 7 7 5 5 6 9 9 10 11 8 7 7 5 5 7 8 9 7 8 8 4 2 2 1 3 4 3 4 4 5 4 4 5 6
Wind_Direction
225 227 228 229 228 223 219 220 224 230 233 237 239 240 243 242 241 235 237 240 239 235 231 225 222 223 225 226 227 226 226 227 226 224 223 224 224 223 221 219 217 215 214
226 228 232 229 225 220 218 217 221 225 229 232 237 238 239 239 239 236 235 240 237 230 226 224 224 226 228 228 227 227 226 226 225 224 223 224 224 224 223 221 218 216 214
226 227 231 231 227 219 215 215 221 223 227 229 236 239 240 239 239 238 237 233 233 230 227 228 229 230 230 231 230 228 226 225 223 222 223 223 223 222 221 219 217 216 214
227 227 230 233 226 216 213 213 213 213 224 224 232 244 249 251 252 251 249 242 231 231 229 232 234 235 236 236 235 233 227 223 222 221 222 222 221 219 217 216 215 214 214
233 229 232 234 225 219 218 223 218 210 223 229 235 245 246 249 253 260 259 254 246 238 229 231 234 236 238 240 239 237 234 227 221 220 220 221 219 217 215 214 214 213 213
253 236 236 236 224 226 230 224 225 227 225 228 248 256 248 245 247 249 254 258 254 250 241 235 233 238 239 240 238 235 236 234 226 220 219 218 218 216 214 213 213 213 213
259 250 247 238 228 231 238 233 228 235 236 219 238 263 261 248 246 249 247 251 259 260 251 239 229 229 237 236 231 230 234 238 233 223 218 216 216 215 213 212 212 212 213
260 253 236 235 231 232 240 236 223 228 234 203 208 237 278 287 256 245 239 241 261 274 269 256 236 228 227 221 225 228 232 236 236 228 220 215 214 213 212 212 212 212 213
280 264 248 239 233 226 236 235 225 227 237 229 206 204 222 241 271 278 244 226 253 286 304 295 258 235 225 214 221 230 234 235 236 235 225 216 213 212 212 212 212 213 213
288 280 264 248 236 229 232 236 228 224 228 237 222 215 219 210 222 278 293 266 276 287 303 309 326 263 213 195 205 218 232 237 239 244 239 226 216 212 214 216 217 216 214
289 281 269 256 244 236 235 236 232 223 218 222 215 208 222 226 217 224 264 292 313 291 285 273 226 191 141 132 137 184 209 237 246 251 252 241 228 219 217 220 224 224 221
294 286 270 252 244 236 232 229 223 216 213 209 204 194 194 200 204 207 226 248 276 283 302 334 106 131 123 114 119 130 152 184 221 234 240 242 236 227 223 225 230 231 230
301 293 278 257 246 234 224 211 198 197 188 182 185 190 191 196 183 191 198 226 256 297 9 33 37 83 106 98 104 121 129 139 148 177 198 222 238 237 230 226 234 239 240
295 292 283 263 245 228 215 198 191 190 180 183 185 177 179 194 195 192 185 180 172 12 39 30 20 38 72 78 73 85 75 88 84 93 107 131 163 193 208 218 238 250 254
301 301 290 270 251 228 207 188 192 193 180 185 186 185 185 188 187 211 206 180 162 128 60 12 30 15 35 64 53 66 51 34 44 59 86 110 125 141 165 211 240 256 263
307 306 301 284 260 237 208 187 185 186 174 177 176 164 145 128 118 228 192 167 149 135 109 34 27 15 27 50 47 48 36 38 34 29 53 75 61 42 292 283 282 280 279
324 323 317 308 289 256 204 178 175 164 155 144 137 133 121 111 96 87 96 90 83 107 110 62 27 23 40 39 25 32 37 39 29 36 46 41 7 330 312 302 297 293 287
329 330 334 341 342 14 105 145 148 133 127 119 113 108 103 101 87 80 90 91 87 94 110 97 38 26 33 30 32 36 31 43 40 43 46 37 2 331 311 300 296 294 291
333 345 355 9 27 50 68 85 99 100 98 97 99 99 97 95 81 72 75 79 80 81 82 90 59 28 26 20 23 25 33 25 28 37 41 32 10 346 326 309 304 302 300
339 353 9 19 40 69 81 84 88 90 86 82 81 83 84 87 89 84 81 83 90 85 79 78 62 33 20 356 25 16 10 6 12 12 14 13 9 4 350 338 328 320 314
348 0 26 35 46 70 88 93 92 94 93 85 74 70 72 78 79 81 90 91 93 90 82 77 64 46 25 17 4 345 5 352 358 358 345 348 348 346 344 346 343 334 326
339 11 46 57 59 80 99 101 104 97 94 91 83 69 66 60 69 73 76 79 90 100 98 86 71 63 32 11 357 11 21 27 359 337 352 329 338 325 314 318 335 338 334
231 92 84 83 80 97 109 104 101 100 92 87 81 73 71 60 67 74 68 65 64 72 91 110 95 81 57 8 24 26 26 48 1 317 357 332 324 311 301 304 328 338 337
174 149 131 116 102 107 115 113 107 98 93 88 87 89 85 66 73 88 78 63 51 45 54 73 104 107 101 130 110 92 328 13 334 331 28 354 318 310 307 314 326 334 337
168 155 144 133 115 107 120 124 114 102 95 83 78 80 88 79 83 90 83 72 52 26 39 59 68 68 63 67 78 54 36 43 3 320 352 11 317 315 316 317 326 336 336
165 152 146 145 131 118 121 127 121 114 104 95 77 69 81 93 88 88 88 83 68 37 43 49 44 35 36 39 49 68 92 82 41 333 325 357 331 342 333 316 324 335 336